TimeCDT,TemperatureF,Dew PointF,Humidity,Sea Level PressureIn,VisibilityMPH,Wind Direction,Wind SpeedMPH,Gust SpeedMPH,PrecipitationIn,Events,Conditions,WindDirDegrees,DateUTC
12:53 AM,53.1,26.1,35,30.15,10.0,SSE,9.2,-,N/A,,Clear,160,2013-11-02 05:53:00
1:53 AM,52.0,28.0,40,30.15,10.0,South,9.2,-,N/A,,Clear,170,2013-11-02 06:53:00
2:53 AM,51.1,28.9,43,30.16,10.0,South,8.1,-,N/A,,Clear,170,2013-11-02 07:53:00
3:53 AM,50.0,30.9,48,30.17,10.0,South,9.2,-,N/A,,Clear,190,2013-11-02 08:53:00
4:53 AM,50.0,32.0,50,30.17,10.0,SSE,5.8,-,N/A,,Clear,160,2013-11-02 09:53:00
5:53 AM,44.1,30.0,58,30.20,10.0,Calm,Calm,-,N/A,,Clear,0,2013-11-02 10:53:00
6:53 AM,43.0,28.9,58,30.23,10.0,East,4.6,-,N/A,,Clear,100,2013-11-02 11:53:00
7:53 AM,44.1,30.9,60,30.25,10.0,SE,5.8,-,N/A,,Clear,140,2013-11-02 12:53:00
8:53 AM,46.0,32.0,58,30.28,10.0,South,4.6,-,N/A,,Clear,170,2013-11-02 13:53:00
9:53 AM,54.0,34.0,47,30.30,10.0,SE,5.8,-,N/A,,Clear,140,2013-11-02 14:53:00
10:53 AM,60.1,32.0,35,30.29,10.0,SSE,15.0,-,N/A,,Clear,150,2013-11-02 15:53:00
11:53 AM,63.0,28.9,28,30.27,10.0,ESE,17.3,-,N/A,,Clear,120,2013-11-02 16:53:00
12:53 PM,66.0,30.9,27,30.24,10.0,SE,17.3,-,N/A,,Clear,130,2013-11-02 17:53:00
1:53 PM,68.0,30.9,25,30.20,10.0,SE,12.7,21.9,N/A,,Clear,140,2013-11-02 18:53:00
2:53 PM,70.0,27.0,20,30.15,10.0,South,12.7,-,N/A,,Clear,170,2013-11-02 19:53:00
3:53 PM,71.1,25.0,18,30.12,10.0,SE,11.5,-,N/A,,Clear,130,2013-11-02 20:53:00
4:53 PM,71.1,21.9,16,30.09,10.0,SSE,10.4,19.6,N/A,,Clear,150,2013-11-02 21:53:00
5:53 PM,70.0,21.0,16,30.10,10.0,SE,13.8,-,N/A,,Clear,130,2013-11-02 22:53:00
6:53 PM,66.0,25.0,21,30.10,10.0,SE,13.8,-,N/A,,Clear,130,2013-11-02 23:53:00
7:53 PM,62.1,26.1,25,30.11,10.0,SE,11.5,-,N/A,,Clear,140,2013-11-03 00:53:00
8:53 PM,57.0,27.0,32,30.13,10.0,SSE,10.4,-,N/A,,Clear,150,2013-11-03 01:53:00
9:53 PM,55.0,28.0,35,30.12,10.0,SSE,10.4,-,N/A,,Clear,150,2013-11-03 02:53:00
10:53 PM,55.0,27.0,34,30.10,10.0,SSE,13.8,-,N/A,,Clear,160,2013-11-03 03:53:00
11:53 PM,55.0,28.0,35,30.08,10.0,SSE,12.7,-,N/A,,Clear,160,2013-11-03 04:53:00